{"data":{"norad_id":47353,"intl_designator":"2021-005E","name":"STARLINK-2045","alt_names":[],"object_type":"PAYLOAD","status":"ACTIVE","operator":null,"country":"US","launch_date":"2021-01-20","launch_site_code":"AFETR","launch_vehicle":null,"mission":null,"orbit_class":"UNKNOWN","rcs_meters":null,"size_class":null,"mass_kg":null,"dimensions":null,"purposes":["comms"],"wikipedia_slug":null,"has_3d_model":false,"image_url":null,"decayed_at":null,"tle_current":{"epoch":"2026-09-20T00:39:59.527584Z","epoch_age_seconds":63072,"freshness":"FRESH","line1":"1 47353U 21005E   26263.02777231 -.00003426  00000+0 -98624-4 0  9997","line2":"2 47353  53.1580 176.2378 0001240  92.1963 267.9180 15.31717637313682","mean_motion":15.31717637,"eccentricity":0.000124,"inclination_deg":53.158,"raan_deg":176.2378,"arg_perigee_deg":92.1963,"mean_anomaly_deg":267.918,"bstar":-9.8624e-5,"rev_number":31368,"period_min":94.012105443949,"perigee_km":469.83816652271,"apogee_km":471.53667497906,"semimajor_km":6848.8244207509,"source":"CELESTRAK","updated_at":"2026-09-20T09:00:38.588958Z"}}}